STARLINK-1927 (47181 NORAD) Tracking and Keplerian Element Data
This shows tracking and keplerian element data for the satellite.
Feedback or suggestion? Click here.
Element | Value |
Catalog | 47181 |
Name | STARLINK-1927 |
Epoch Orbit | 891 |
Epoch Day | 16.16667824 |
Epoch Year | 2021 |
RAAN | 97.3733 |
Inclination | 53.0546 |
Eccentricity | 0.0001132 |
Argument of Perigee | 41.1205 |
Mean Anonmoly | 307.6931 |
Mean Motion | 15.62787921 |
Decay Rate | -0.00014474 |
L1 | 1 47181U 20088BM 21016.16667824 -.00014474 00000-0 -15232-3 0 9997 |
L2 | 2 47181 53.0546 97.3733 0001132 41.1205 307.6931 15.62787921 8913 |
Live tracking and technical data element details for STARLINK-1927 (NORAD 47181). STARLINK-1927 can be tracked NOW for your location showing map with azimuth and elevation plus other details from your city location.
Track the satellite on the map from your city or location and see movement details for azimuth, elevation, latitude, longitude, range, height, and movement on the map or in text.
IsCatalogInMostPopularTable: catalog: 47181, numindb: 26
Update: records affected: 1
GetName: 47181 STARLINK-1927
Hit Count: updated at: Sun, 17 Jan 2021 08:19:38 GMT